Regional Weather Roundup
Issued by NWS Charleston, SC

Current Version | Previous Version | Graphics & Text | Print | Product List | Glossary On
Versions: 1 2 3 4 5 6 7 8 9 10 11 12 13 14 15 16 17 18 19 20 21 22 23 24 25 26 27 28 29 30 31 32 33 34 35 36 37 38 39 40 41 42 43 44 45 46 47 48 49 50
000
ASUS42 KCHS 231727
RWRCHS

REGIONAL WEATHER ROUNDUP
NATIONAL WEATHER SERVICE CHARLESTON SC
100 PM EDT FRI JUN 23 2017

NOTE: "FAIR" INDICATES FEW OR NO CLOUDS BELOW 12,000 FEET WITH NO
SIGNIFICANT WEATHER AND/OR OBSTRUCTIONS TO VISIBILITY.

NOT ALL STATIONS ARE QUALITY CONTROLLED. USE DATA WITH CAUTION...
ESPECIALLY DEWPOINT OBSERVATIONS.

SCZ027-030-031-034>040-042>050-231800-
...SOUTHEAST SOUTH CAROLINA...

CITY           SKY/WX    TMP DP  RH WIND       PRES   REMARKS
N CHARLESTON   PTSUNNY   88  75  65 SW13      30.03F HX  97
WATERFRONT PRK   N/A     83  76  79 SW10G17   30.03F HX  91
JOHNS ISLAND   CLOUDY    86  77  74 S14       30.04F HX  97
PINOPOLIS        N/A     86  79  79 SW7       29.97F HX  99
MONCKS CORNER  PTSUNNY   86  75  70 SW7       30.02F HX  95
SUMMERVILLE    FAIR      86  77  74 S6        30.03F HX  97
BEAUFORT MCAS  CLOUDY    88  78  72 S8        30.03F HX 101
BEAUFORT ARPT  FAIR      86  77  74 S10G17    30.03F HX  97
HILTON HEAD IS PTSUNNY   86  77  74 S13G20    30.05F HX  97
WALTERBORO     CLOUDY    88  77  70 S9        30.03F HX 100
ALLENDALE      FAIR      88  75  66 S7        30.01F HX  97

...SOUTHERN MIDLANDS AND PEE DEE...

CITY           SKY/WX    TMP DP  RH WIND       PRES   REMARKS
GEORGETOWN     PTSUNNY   86  79  79 S9        30.03F HX  99
KINGSTREE      PTSUNNY   86  73  66 S6        30.01F HX  93
ORANGEBURG     PTSUNNY   87  75  67 SW13      30.02F HX  96
BARNWELL       CLOUDY    91  75  59 VRB5G12   30.02S HX 102
AIKEN          FAIR      88  70  55 SW14      30.05F HX  92
MANNING        FAIR      86  79  79 SW23      30.01F HX  99
COLUMBIA       PTSUNNY   91  69  48 SW13      29.99F HX  96
SUMTER         PTSUNNY   88  73  60 SW8G17    29.99F HX  95
FLORENCE       MOSUNNY   87  74  64 SW10      30.01F HX  95
MYRTLE BEACH   PTSUNNY   84  77  79 S13       30.04F HX  94
N MYRTLE BEACH CLOUDY    85  76  74 S18       30.02F HX  94

$$

GAZ063-065-086>088-099>101-113>116-118-119-134>141-150-231800-
...SOUTHEAST GEORGIA...

CITY           SKY/WX    TMP DP  RH WIND       PRES   REMARKS
SAVANNAH ARPT  PTSUNNY   90  74  59 S10       30.03F HX  99
HUNTER AAF     MOSUNNY   89  77  67 S5        30.00F HX 100
FORT STEWART   CLOUDY    89  75  62 SE6       30.01F HX  99
STATESBORO     MOSUNNY   89  77  66 SW7       30.03F HX 101
SYLVANIA       RAIN      83  79  87 W5        30.04S HX  95
CLAXTON        PTSUNNY  N/A N/A N/A S3        30.02F

...CSRA...CENTRAL AND FAR SOUTHEAST GEORGIA...

CITY           SKY/WX    TMP DP  RH WIND       PRES   REMARKS
THOMSON        MOSUNNY   89  72  56 W8G17     30.06F HX  95
AUGUSTA-BUSH   SUNNY     92  71  50 S8G21     30.00F HX  98
AUGUSTA-DANIEL MOSUNNY   91  65  41 SW13G20   30.02F HX  93
SWAINSBORO     PTSUNNY   88  73  62 SW6       30.03F HX  96
VIDALIA        CLOUDY    88  75  66 SW8       30.03F HX  97
EASTMAN        PTSUNNY   90  64  41 SW8       30.05F HX  91
HAZLEHURST     PTSUNNY   90  77  65 S5        30.02F HX 102
ALMA           PTSUNNY   88  74  63 S9        30.03F HX  96
WAYCROSS       PTSUNNY   91  81  70 SW8       30.03F HX 110
JESUP          PTSUNNY   88  72  58 W3        30.03F HX  94
BAXLEY         PTSUNNY   90  81  74 S7        30.02F HX 108
BRUNSWICK      MOSUNNY   90  77  66 S5        30.04F HX 102
SAINT SIMONS   MOSUNNY   86  77  74 S12       30.05S HX  97

$$

SCZ027-028-034-036>038-045-046-048>050-GAZ119-141-231800-
...LAKE AND SUPPLEMENTAL COASTAL OBSERVATIONS...

STATION/POSITION TIME  TEMP    WIND        PRES    WAVE   SWELL
                       AIR SEA DIR/SP/G            HT/PER HT/PER/DIR
                 (UTC) (F)     (DEG/KT/KT) (MB)    (FT/S) (FT/S/D)
WINYAH BAY       1630   85     220/ 12     1017.0S
LAKE MURRAY      1720   86     220/  8/ 12 1014.6
ACE BASIN NERRS  1630   85     180/  1     1017.0S
FORT PULASKI     1700   84 84  210/ 10/ 13 1017.4
SAPELO ISLAND    1700   87     160/  9     1017.0

$$

ANZ835-935-AMZ111-154-330-350-352-354-370-450-454-472-231800-
...C-MAN AND BUOY OBSERVATIONS...

STATION/POSITION TIME  TEMP    WIND        PRES    WAVE   SWELL
                       AIR SEA DIR/SP/G            HT/PER HT/PER/DIR
                 (UTC) (F)     (DEG/KT/KT) (MB)    (FT/S) (FT/S/D)
BUOY 41004       1710   81 81  220/ 16/ 17 1017.5
BUOY 41008       1650   80 82  180/ 14/ 17 1017.5F   3/ 5   2/100/ 8
FOLLY BEACH CMAN 1700   82     210/ 17/ 20 1018.1F
CAPERS NEARSHORE 1708   86 82  220/ 16/ 19 1017.2F
FRIPP NEARSHORE  1708   82 83  210/ 14/ 19 1017.1F


STATION/POSITION TIME  TEMP    WIND        PRES    WAVE   SWELL
                       AIR SEA DIR/SP/G            HT/PER HT/PER/DIR
                 (UTC) (F)     (DEG/KT/KT) (MB)    (FT/S) (FT/S/D)
5E ST. MARYS GA  1700      81                N/A     3/ 8
FRYING PAN BUOY  1710   81 81  220/ 16/ 19 1017.3
BUOY 41025       1650   80 80  220/ 17/ 19 1016.2F   3/ 9   2/170/ 9
CAPE LOOKOUT NC  1700   81     210/ 12/ 15 1016.1F
BUOY 41002       1650   80 82  220/ 12/ 14 1019.7S   4/ 9   3/ 90/ 9
BUOY 41010       1710   83 83  160/ 10/ 12 1018.9
ST AUGUSTINE FL  NOT AVBL


$$




USA.gov is the U.S. government's official web portal to all federal, state and local government web resources and services.